Wind_Speed
8 7 7 7 7 8 8 8 8 8 8 8 8 7 7 7 7 7 7 8 7 7 7 7 7 8 8 9 9 9 10 10 11 12 13 13 14 15 15 15 16 16 16
7 7 7 7 7 7 7 7 8 8 7 7 8 7 7 7 6 6 6 6 7 7 7 7 7 8 8 9 9 9 10 10 11 11 12 13 14 14 15 15 16 16 16
6 6 6 6 7 7 7 7 8 8 7 7 7 7 7 7 6 6 6 5 5 6 6 6 7 7 7 8 8 9 9 10 10 11 12 13 14 14 14 14 14 15 14
6 6 6 6 6 6 6 7 8 7 7 7 7 6 6 6 6 6 6 5 5 5 5 6 6 6 7 7 7 8 9 10 10 11 12 12 13 14 13 13 13 13 13
6 6 6 5 6 6 6 6 7 7 7 6 7 6 6 6 6 6 6 5 5 5 5 5 5 6 6 6 7 7 8 9 9 10 11 11 11 12 12 12 13 13 13
6 6 6 5 5 5 5 6 6 6 6 6 6 6 6 6 5 5 5 4 4 4 4 5 5 5 6 6 7 7 8 9 9 9 10 10 10 11 12 12 11 11 12
6 6 5 5 5 5 5 5 5 6 6 6 6 6 6 5 5 5 5 4 4 4 5 4 4 4 5 5 6 6 7 8 8 9 9 10 11 11 12 11 10 10 11
6 6 6 6 6 6 5 5 6 6 6 6 6 6 5 5 5 5 5 5 4 4 4 3 3 4 4 5 5 6 7 7 8 9 9 9 10 10 11 10 10 10 10
6 7 6 6 6 6 6 6 6 6 6 6 5 5 4 4 4 4 4 4 4 4 3 3 4 4 5 5 5 6 6 7 8 9 9 10 11 11 11 11 10 9 9
6 6 6 6 6 7 6 6 7 7 7 6 5 5 4 3 3 3 4 4 4 4 3 3 4 4 5 5 5 6 6 7 8 9 9 10 11 11 11 10 8 7 7
6 7 7 6 6 7 7 7 7 7 7 7 6 5 5 4 4 3 3 3 3 4 3 4 4 4 5 5 5 6 6 7 9 9 9 9 10 11 10 9 7 6 6
7 8 8 7 7 7 7 7 7 7 7 7 6 6 5 5 5 4 4 4 4 4 4 5 5 5 5 6 6 6 7 8 9 9 9 10 10 10 9 8 7 7 6
7 8 8 8 8 8 7 7 7 7 7 7 6 6 6 5 5 6 5 5 4 4 4 5 5 6 6 6 7 7 7 8 9 9 9 10 10 10 9 8 7 7 7
8 8 8 8 8 8 7 7 8 7 6 6 6 6 5 5 5 5 5 4 4 5 5 5 5 6 6 7 7 7 8 8 9 9 10 10 10 10 10 9 8 9 9
7 7 7 7 8 8 7 7 7 7 7 6 5 5 5 5 5 5 5 4 5 5 5 6 6 6 7 7 8 8 8 8 8 9 10 9 9 9 8 8 9 9 10
7 7 7 8 8 8 7 7 7 7 6 6 6 6 5 5 4 5 5 5 5 5 5 5 6 7 7 7 8 8 8 8 9 10 10 10 10 10 10 10 10 10 11
7 6 6 7 7 8 7 7 7 7 7 7 6 6 5 5 5 5 5 5 5 5 5 5 6 6 7 7 8 8 9 9 10 10 11 10 10 11 11 12 12 12 13
8 8 8 8 8 8 8 8 8 8 8 7 7 6 6 6 6 5 5 6 5 5 5 5 6 6 7 7 8 9 9 10 11 10 11 11 11 12 12 12 13 14 15
9 9 9 9 9 9 9 9 9 9 8 8 7 7 6 6 6 6 6 6 5 5 5 6 7 7 7 8 8 9 10 11 11 11 12 12 12 13 13 13 14 15 16
9 9 9 9 9 9 9 10 10 10 9 9 8 8 8 7 7 6 6 6 6 6 7 7 7 7 8 9 10 10 11 11 12 12 13 13 14 14 14 14 15 16 17
10 9 9 9 9 9 9 10 10 10 10 10 9 9 9 8 8 8 7 7 7 8 8 8 8 9 10 11 11 11 12 12 12 13 14 14 14 15 16 16 17 18 18
10 10 10 9 9 9 10 10 10 10 10 10 10 10 10 9 9 9 9 8 9 9 9 9 10 11 12 12 12 12 12 13 13 14 15 15 16 17 17 18 18 19 20
10 11 11 10 9 9 10 10 11 11 11 11 11 10 10 10 9 10 10 10 10 11 11 11 12 12 13 13 13 13 14 14 15 16 16 17 18 17 18 19 20 21 21
11 11 11 11 11 10 10 10 11 11 12 12 12 11 11 10 10 10 10 11 11 12 12 12 12 13 13 14 14 15 15 16 16 17 17 18 18 18 19 21 22 23 23
12 12 11 12 12 11 11 11 11 12 12 13 12 12 11 11 11 12 12 12 12 12 13 13 14 14 15 15 16 16 17 17 17 18 18 18 19 20 21 22 23 24 25
12 13 13 12 13 13 13 12 12 13 14 13 14 14 13 13 13 12 13 13 14 14 14 14 15 15 15 16 16 17 18 18 18 19 19 19 20 21 22 24 25 25 26
Wind_Direction
269 266 265 262 260 254 249 248 252 255 254 248 243 248 254 254 254 257 262 268 269 268 272 273 278 280 282 285 285 285 285 285 284 284 281 282 283 284 283 282 281 281 283
267 266 262 262 260 254 248 248 250 251 249 245 240 244 247 248 253 256 258 264 265 267 271 272 277 282 285 286 286 288 287 289 289 287 286 286 286 286 285 285 285 283 282
264 267 261 263 263 257 252 250 249 248 246 244 241 241 244 247 255 257 257 269 269 275 282 276 279 286 288 289 292 293 293 294 293 291 290 289 290 290 289 289 287 285 282
262 260 259 264 263 258 255 252 246 244 238 234 234 237 243 245 250 257 262 269 277 280 283 284 285 293 293 292 294 296 296 298 298 298 298 296 295 292 289 288 287 286 283
258 260 261 261 260 256 251 250 245 240 231 228 228 231 239 249 254 258 266 273 276 281 281 285 288 295 298 295 296 299 300 303 303 305 306 306 305 300 296 292 288 286 282
254 253 258 262 255 252 250 249 244 232 228 231 229 234 239 248 254 258 267 271 274 283 294 295 296 296 299 298 301 302 302 308 312 312 313 312 312 308 306 301 295 290 285
249 249 255 257 249 249 248 243 237 230 230 231 231 236 242 248 250 257 264 273 273 278 291 300 304 308 310 309 312 316 315 318 323 323 323 320 317 314 309 302 299 294 291
250 249 254 252 244 242 246 245 236 234 230 229 230 236 243 245 250 256 261 267 272 283 297 311 314 320 322 322 320 323 326 331 334 333 330 328 326 323 320 310 300 295 293
250 248 250 247 241 238 242 244 233 231 227 228 230 233 241 242 247 247 253 265 276 283 291 301 307 313 316 321 322 327 332 332 333 333 331 332 333 329 323 318 307 302 297
245 244 242 242 238 236 235 234 235 233 229 226 228 236 242 244 243 246 253 263 275 285 287 294 304 312 315 317 319 322 330 332 335 333 330 331 337 338 332 331 322 309 304
250 246 241 240 240 238 236 231 231 230 229 229 234 237 240 241 243 250 256 264 277 285 286 296 306 313 320 318 320 324 330 331 333 334 332 334 338 339 341 338 333 318 310
247 243 238 239 239 239 238 234 232 229 231 234 236 236 241 242 243 251 257 266 277 282 288 298 304 308 314 319 321 324 328 331 333 330 330 335 335 335 336 336 331 324 319
242 241 240 238 237 238 240 238 235 234 233 235 236 241 243 245 254 262 259 262 271 278 287 296 304 308 312 316 319 323 328 331 332 331 333 334 334 335 336 335 332 328 322
239 239 239 236 234 236 240 238 236 235 238 235 239 244 246 249 258 258 258 266 273 277 285 294 304 309 312 313 317 322 324 325 329 328 330 332 333 333 333 331 329 326 324
240 238 236 233 231 234 235 232 233 233 235 240 242 242 246 248 249 254 262 270 277 283 289 295 302 307 310 311 315 317 320 322 327 329 327 328 331 333 334 330 326 323 321
243 235 235 233 229 229 231 231 233 233 237 243 246 246 244 247 254 256 261 269 276 278 284 288 295 300 307 312 316 315 318 319 323 327 327 327 326 329 332 328 319 318 317
234 231 235 235 230 225 229 233 233 233 238 242 244 240 242 248 257 260 262 267 274 279 286 291 297 303 309 313 319 321 317 316 317 320 320 320 321 322 324 324 323 322 322
233 234 237 237 233 231 232 232 234 237 237 237 240 238 240 246 253 260 263 266 269 273 283 291 298 305 312 316 318 321 320 319 318 319 318 315 315 316 317 317 317 318 320
235 237 237 236 233 236 235 236 238 239 238 237 238 239 243 248 254 261 264 267 266 272 283 289 292 299 306 310 315 319 321 322 322 321 322 321 321 320 316 316 317 319 321
234 236 235 234 236 237 237 238 238 241 239 235 238 242 246 250 255 262 266 266 269 275 282 288 294 299 305 308 312 316 320 320 317 318 320 321 320 319 318 317 318 318 318
233 232 232 233 234 237 238 238 238 239 239 236 239 246 249 253 257 259 262 267 272 277 283 287 293 300 305 307 309 310 313 313 313 314 315 317 317 314 313 315 316 316 317
234 231 232 233 235 237 238 238 239 240 239 235 239 248 250 253 255 258 263 266 272 277 281 286 293 299 302 305 306 309 311 311 310 309 310 311 312 313 313 314 315 316 317
237 232 231 232 234 237 241 242 242 242 238 235 241 249 254 256 258 259 263 265 271 276 281 286 293 297 299 302 305 309 310 310 309 308 308 309 310 311 312 312 313 313 315
238 230 231 233 236 239 242 246 245 246 240 239 244 250 255 255 261 265 267 270 273 277 282 288 294 298 299 299 302 306 308 308 307 307 307 308 309 309 310 311 311 311 312
242 233 232 236 237 240 242 244 246 246 244 242 246 250 254 258 262 265 268 270 272 275 280 286 291 295 296 298 300 303 306 307 308 308 307 307 307 308 310 311 311 311 310
243 236 237 238 241 244 245 246 248 249 247 245 248 251 255 259 261 266 270 271 273 275 280 285 288 292 296 298 301 303 304 304 306 307 308 307 308 308 309 311 311 310 310
Height
5854 5854 5854 5854 5854 5854 5854 5854 5854 5855 5855 5855 5855 5855 5855 5855 5855 5855 5855 5855 5855 5855 5854 5854 5853 5853 5853 5852 5852 5851 5851 5850 5849 5848 5847 5846 5845 5845 5844 5843 5842 5841 5840
5852 5852 5852 5852 5852 5852 5852 5852 5852 5853 5853 5853 5854 5854 5854 5854 5854 5854 5854 5854 5854 5853 5852 5852 5852 5851 5851 5850 5850 5849 5848 5848 5847 5846 5845 5844 5842 5841 5840 5839 5838 5837 5836
5850 5850 5850 5850 5850 5850 5850 5850 5850 5851 5851 5852 5852 5852 5852 5852 5853 5853 5852 5852 5852 5851 5851 5850 5850 5849 5849 5848 5848 5847 5846 5845 5845 5843 5842 5841 5839 5838 5837 5836 5835 5834 5833
5848 5848 5848 5848 5848 5848 5848 5848 5849 5849 5850 5850 5851 5851 5851 5851 5851 5851 5851 5851 5851 5850 5849 5849 5848 5848 5847 5847 5846 5845 5844 5843 5842 5841 5840 5838 5837 5835 5834 5832 5831 5830 5830
5847 5847 5847 5847 5847 5847 5847 5847 5847 5848 5849 5849 5849 5850 5850 5850 5850 5850 5850 5850 5849 5849 5848 5848 5847 5846 5846 5845 5844 5843 5843 5841 5840 5839 5837 5836 5834 5832 5831 5830 5829 5828 5827
5845 5845 5845 5845 5845 5845 5846 5846 5846 5847 5847 5848 5848 5849 5849 5849 5849 5849 5849 5849 5848 5848 5848 5847 5846 5845 5845 5844 5843 5842 5841 5840 5838 5837 5835 5833 5832 5830 5828 5827 5826 5825 5824
5844 5844 5844 5844 5844 5844 5845 5845 5846 5846 5846 5847 5847 5848 5848 5848 5848 5848 5848 5848 5847 5847 5847 5846 5845 5844 5844 5843 5842 5841 5840 5838 5837 5835 5833 5832 5830 5827 5825 5824 5823 5822 5821
5842 5842 5843 5843 5843 5843 5844 5844 5845 5845 5846 5846 5846 5847 5847 5848 5847 5847 5847 5847 5847 5846 5846 5845 5844 5844 5843 5842 5841 5840 5839 5837 5836 5834 5832 5830 5828 5825 5823 5821 5820 5819 5818
5841 5841 5841 5841 5842 5842 5842 5843 5843 5844 5845 5845 5846 5846 5846 5846 5846 5847 5846 5846 5846 5845 5845 5844 5843 5843 5842 5841 5840 5839 5838 5836 5835 5833 5831 5829 5826 5823 5820 5817 5816 5816 5815
5839 5840 5840 5840 5840 5841 5841 5841 5842 5843 5844 5844 5845 5845 5846 5845 5846 5846 5846 5845 5845 5844 5844 5843 5843 5842 5841 5840 5839 5838 5837 5835 5834 5832 5830 5827 5825 5821 5817 5814 5813 5813 5813
5838 5838 5838 5839 5839 5839 5840 5840 5841 5842 5842 5843 5843 5844 5844 5845 5845 5845 5845 5845 5844 5844 5843 5842 5842 5841 5840 5839 5838 5837 5836 5834 5833 5831 5828 5826 5823 5820 5817 5814 5812 5812 5812
5836 5836 5837 5837 5838 5838 5839 5839 5840 5840 5841 5842 5842 5843 5843 5844 5844 5844 5844 5844 5843 5843 5842 5841 5841 5840 5839 5838 5837 5836 5834 5833 5831 5829 5827 5825 5822 5820 5818 5815 5813 5812 5811
5834 5835 5835 5836 5836 5837 5837 5838 5838 5839 5840 5841 5841 5842 5842 5842 5842 5842 5842 5842 5842 5842 5841 5840 5839 5839 5838 5837 5836 5834 5833 5832 5830 5828 5826 5824 5821 5819 5817 5815 5814 5812 5811
5832 5833 5833 5834 5834 5835 5836 5836 5837 5838 5838 5839 5840 5840 5840 5841 5841 5841 5841 5841 5841 5840 5839 5839 5838 5837 5836 5835 5834 5833 5832 5830 5828 5826 5824 5823 5820 5818 5816 5815 5813 5811 5810
5831 5831 5832 5832 5833 5833 5834 5835 5836 5836 5837 5838 5838 5838 5839 5839 5839 5839 5839 5839 5839 5839 5838 5837 5837 5836 5835 5834 5833 5832 5830 5829 5827 5825 5823 5821 5819 5817 5815 5814 5812 5810 5808
5829 5829 5830 5830 5831 5832 5832 5833 5834 5835 5836 5836 5836 5837 5837 5838 5838 5838 5838 5838 5838 5837 5837 5836 5835 5835 5834 5832 5831 5830 5829 5827 5825 5823 5822 5820 5818 5816 5814 5812 5810 5808 5806
5827 5828 5828 5829 5829 5830 5831 5832 5833 5834 5834 5835 5835 5835 5836 5836 5836 5836 5836 5836 5836 5836 5835 5835 5834 5833 5832 5831 5829 5828 5827 5825 5824 5822 5820 5818 5816 5814 5812 5810 5808 5806 5804
5825 5826 5827 5827 5828 5829 5829 5830 5831 5832 5832 5833 5833 5834 5834 5834 5835 5835 5835 5834 5834 5834 5834 5833 5832 5832 5830 5829 5828 5827 5825 5823 5822 5820 5818 5816 5814 5812 5810 5808 5806 5804 5801
5823 5824 5825 5825 5826 5827 5827 5828 5829 5830 5830 5831 5831 5832 5832 5833 5833 5833 5833 5833 5833 5832 5832 5832 5831 5830 5829 5828 5827 5825 5823 5821 5820 5818 5816 5814 5812 5810 5807 5806 5803 5801 5799
5821 5821 5822 5823 5824 5825 5825 5826 5827 5828 5828 5829 5830 5830 5831 5831 5831 5831 5831 5831 5831 5831 5830 5830 5829 5828 5827 5826 5825 5823 5821 5819 5817 5816 5813 5811 5809 5807 5805 5803 5800 5798 5795
5818 5819 5820 5821 5822 5822 5823 5824 5824 5825 5826 5827 5827 5828 5829 5829 5829 5829 5830 5829 5829 5829 5828 5827 5827 5826 5825 5823 5822 5821 5819 5817 5815 5813 5811 5809 5806 5804 5802 5799 5796 5794 5791
5816 5817 5818 5819 5819 5820 5821 5821 5822 5823 5824 5824 5825 5826 5826 5827 5827 5827 5827 5827 5827 5826 5826 5825 5824 5823 5822 5821 5819 5818 5816 5814 5812 5810 5808 5805 5803 5800 5798 5795 5793 5790 5787
5813 5814 5815 5816 5817 5818 5818 5819 5820 5820 5821 5822 5822 5823 5823 5824 5824 5824 5824 5824 5824 5823 5823 5822 5821 5820 5819 5817 5816 5814 5813 5811 5809 5807 5804 5802 5799 5797 5794 5791 5789 5786 5783
5810 5811 5812 5813 5814 5815 5816 5816 5817 5818 5818 5819 5820 5820 5821 5821 5821 5821 5821 5821 5821 5820 5820 5819 5818 5817 5815 5814 5812 5811 5809 5807 5805 5803 5800 5798 5795 5792 5790 5787 5784 5781 5778
5807 5808 5809 5810 5811 5812 5813 5814 5814 5815 5815 5816 5817 5817 5818 5818 5818 5818 5818 5818 5817 5817 5816 5815 5814 5813 5812 5810 5808 5807 5805 5803 5801 5798 5796 5793 5791 5788 5785 5782 5779 5775 5772
5804 5805 5806 5807 5808 5809 5810 5810 5811 5812 5812 5813 5813 5814 5814 5814 5814 5814 5814 5814 5813 5813 5812 5811 5810 5809 5807 5806 5804 5802 5800 5798 5796 5793 5791 5788 5786 5783 5780 5777 5773 5770 5766